Regional Weather Roundup
Issued by NWS Sioux Falls, SD

Home | Current Version | Previous Version | Graphics & Text | Print | Product List | Glossary Off
Versions: 1 2 3 4 5 6 7 8 9 10 11 12 13 14 15 16 17 18 19 20 21 22 23 24 25 26 27 28 29 30 31 32 33 34 35 36 37 38 39 40 41 42 43 44 45 46 47 48 49 50

000
ASUS43 KFSD 211302
RWRFSD

WEATHER ROUNDUP FOR SE SOUTH DAKOTA/SW MINNESOTA/NW IOWA
NATIONAL WEATHER SERVICE SIOUX FALLS SD
800 AM CDT THU AUG 21 2014

NOTE: "FAIR" INDICATES FEW OR NO CLOUDS BELOW 12,000 FEET WITH NO
SIGNIFICANT WEATHER AND OR OBSTRUCTIONS TO VISIBILITY.


SDZ038>040-050-052>070-211400-
SOUTHEAST SOUTH DAKOTA

CITY           SKY/WX    TMP DP  RH WIND       PRES   REMARKS
CHAMBERLAIN    PTSUNNY   68  67  95 N6        29.81R
HURON          MOSUNNY   69  66  90 NW7       29.77R
MADISON        CLOUDY    72  72 100 CALM      29.78R
MITCHELL       CLOUDY    72  72 100 NW6       29.76R FOG
SIOUX FALLS    CLOUDY    73  71  93 CALM      29.77R
WINNER         CLOUDY    69  67  93 NW12      29.84R
YANKTON        CLOUDY    75  66  73 SW8       29.76R
$$

MNZ071-072-080-081-089-090-097-098-211400-
SOUTHWEST MINNESOTA

CITY           SKY/WX    TMP DP  RH WIND       PRES   REMARKS
FAIRMONT       CLOUDY    70  64  83 MISG      29.81R
JACKSON        MOSUNNY   70  68  94 SE8       29.79S
LUVERNE        CLOUDY    72  70  94 CALM      29.77R FOG
MARSHALL       MOSUNNY   72  66  83 SE5       29.74R
MONTEVIDEO     SUNNY     72  70  94 SE10      29.74S
PIPESTONE      CLOUDY    72  70  94 SE5       29.77S
REDWOOD FALLS  PTSUNNY   72  70  93 E12       29.74S
TRACY          PTSUNNY   71  69  95 CALM      29.75S
WINDOM         CLOUDY    72  70  94 SE8       29.78R
WORTHINGTON    PTSUNNY   73  14  10 S3        29.79R
$$

IAZ001>003-012>014-020>022-031-032-NEZ013-014-SDZ071-211400-
NORTHWEST IOWA

CITY           SKY/WX    TMP DP  RH WIND       PRES   REMARKS
CHEROKEE       CLOUDY    74  71  90 S12       29.81R
DENISON        CLOUDY    75  70  83 SW8       29.81R
ESTHERVILLE    MOSUNNY   71  70  96 SE8       29.80R
LE MARS        CLOUDY    75  70  83 S9        29.79R
ORANGE CITY    CLOUDY    73  70  88 SW6       29.79S
SHELDON        PTSUNNY   73  72  94 SW7       29.78R
SIOUX CITY     CLOUDY    74  67  78 S3        29.78R
SPENCER        LGT RAIN  74  69  85 SW12G22   29.80R
STORM LAKE     CLOUDY    73  73 100 SW9       29.82R
$$

ABBREVIATIONS USED IN REMARKS
   TC - TEMPERATURE IN CELSIUS
  WCI - WIND CHILL INDEX
   HX - HEAT INDEX
  VSB - VISIBILITY




USA.gov is the U.S. government's official web portal to all federal, state and local government web resources and services.